DW5057 Weather Reports


Display with metric or nautical units.
time (UTC)temp
F
wind
direction
speed
MPH
gust
MPH
rain 1hr
in
rain 24hr
in
rain mn
in
humidity
%
barometer
mb
20260508182519 63 188 1.0 4.0 0.00 0.17 0.00 58 1014.4
20260508181518 64 218 1.0 6.0 0.00 0.17 0.00 56 1014.4
20260508180518 63 114 1.0 4.0 0.00 0.17 0.00 56 1014.6
20260508175559 63 56 1.0 3.0 0.00 0.18 0.00 56 1014.8
20260508174536 63 47 1.0 3.0 0.00 0.18 0.00 54 1014.8
20260508173516 64 50 1.0 3.0 0.00 0.18 0.00 54 1014.8
20260508172519 64 174 1.0 5.0 0.00 0.18 0.00 52 1014.9
20260508171536 64 349 1.0 4.0 0.00 0.18 0.00 51 1015.1
20260508170516 65 307 1.0 3.0 0.00 0.18 0.00 46 1015.0
20260508165516 66 277 2.0 5.0 0.00 0.18 0.00 46 1015.2
20260508164537 66 32 1.0 3.0 0.00 0.18 0.00 45 1015.3
20260508163516 66 53 1.0 4.0 0.00 0.18 0.00 46 1015.4
20260508162537 67 46 1.0 4.0 0.00 0.18 0.00 44 1015.5
20260508161517 69 25 1.0 3.0 0.00 0.18 0.00 42 1015.5
20260508160537 68 13 1.0 3.0 0.00 0.18 0.00 44 1015.6
20260508155517 69 29 1.0 3.0 0.00 0.18 0.00 42 1015.7
20260508154517 69 20 1.0 3.0 0.00 0.18 0.00 45 1015.7
20260508153517 69 35 2.0 4.0 0.00 0.18 0.00 43 1015.8
20260508152518 69 20 1.0 3.0 0.00 0.18 0.00 42 1015.8
20260508151518 69 26 1.0 3.0 0.00 0.18 0.00 43 1016.0
20260508150519 70 31 1.0 4.0 0.00 0.18 0.00 42 1016.1
20260508145518 70 36 1.0 4.0 0.00 0.18 0.00 43 1016.1
20260508144515 70 28 1.0 3.0 0.00 0.18 0.00 41 1016.2
20260508143516 70 38 1.0 4.0 0.00 0.18 0.00 43 1016.2
20260508142516 69 32 1.0 3.0 0.00 0.18 0.00 43 1016.2
20260508141516 68 46 1.0 4.0 0.00 0.18 0.00 46 1016.1
20260508140516 67 44 1.0 4.0 0.00 0.18 0.00 46 1016.1
20260508135516 66 33 1.0 3.0 0.00 0.18 0.00 47 1016.0
20260508134517 64 358 1.0 3.0 0.00 0.18 0.00 52 1015.9
20260508133516 64 85 1.0 3.0 0.00 0.18 0.00 51 1016.1
20260508132517 64 56 2.0 4.0 0.00 0.18 0.00 51 1016.0
20260508131517 63 41 1.0 3.0 0.00 0.18 0.00 53 1016.0
20260508130517 62 340 0.0 3.0 0.00 0.18 0.00 53 1015.9
20260508125517 61 138 1.0 4.0 0.00 0.18 0.00 55 1015.9
20260508124518 59 113 0.0 4.0 0.00 0.18 0.00 57 1015.7
20260508123600 58 212 0.0 1.0 0.00 0.18 0.00 62 1015.6
20260508122520 57 261 0.0 0.0 0.00 0.18 0.00 63 1015.7
20260508121521 56 182 0.0 1.0 0.00 0.18 0.00 63 1015.6
20260508120521 56 258 0.0 1.0 0.00 0.18 0.00 65 1015.4
20260508115641 55 92 1.0 2.0 0.00 0.18 0.00 67 1015.3
20260508114521 55 54 0.0 3.0 0.00 0.18 0.00 68 1015.4
20260508113542 54 303 0.0 1.0 0.00 0.18 0.00 68 1015.2
20260508112522 54 163 1.0 2.0 0.00 0.18 0.00 69 1015.0
20260508111522 54 209 1.0 3.0 0.00 0.18 0.00 70 1014.9
20260508110522 54 155 0.0 1.0 0.00 0.18 0.00 69 1014.7
20260508105542 53 34 0.0 0.0 0.00 0.18 0.00 70 1014.5
20260508104523 53 138 0.0 2.0 0.00 0.18 0.00 71 1014.4
20260508103523 53 311 1.0 3.0 0.00 0.18 0.00 72 1014.3
20260508102543 53 187 1.0 2.0 0.00 0.18 0.00 71 1014.2
20260508101523 53 258 1.0 4.0 0.00 0.18 0.00 71 1014.0
20260508100524 53 140 0.0 2.0 0.00 0.18 0.00 73 1013.9
20260508095523 54 345 0.0 2.0 0.00 0.18 0.00 72 1013.7
20260508094523 54 156 1.0 2.0 0.00 0.18 0.00 73 1013.6
20260508093524 54 213 1.0 2.0 0.00 0.18 0.00 71 1013.4
20260508092523 55 178 1.0 2.0 0.00 0.18 0.00 72 1013.3
20260508091544 55 191 1.0 3.0 0.00 0.18 0.00 72 1013.1
20260508090524 55 169 1.0 3.0 0.00 0.18 0.00 73 1013.0
20260508085524 55 222 1.0 3.0 0.00 0.18 0.00 75 1012.8
20260508084524 55 234 1.0 2.0 0.00 0.18 0.00 80 1012.7
20260508083525 55 196 1.0 4.0 0.00 0.18 0.00 80 1012.6
20260508082525 54 189 1.0 2.0 0.00 0.18 0.00 84 1012.4
20260508081545 54 218 0.0 1.0 0.00 0.18 0.00 88 1012.4
20260508080525 54 179 0.0 2.0 0.00 0.18 0.00 88 1012.2
20260508075525 54 175 0.0 1.0 0.00 0.18 0.00 87 1012.0
20260508074525 54 207 0.0 2.0 0.00 0.18 0.00 88 1011.9
20260508073526 55 200 0.0 1.0 0.00 0.18 0.00 87 1011.7
20260508072526 55 216 0.0 1.0 0.00 0.18 0.00 87 1011.5
20260508071526 55 205 0.0 2.0 0.00 0.18 0.00 88 1011.2
20260508070526 54 229 0.0 2.0 0.00 0.21 0.00 86 1011.1
20260508065546 54 286 0.0 0.0 0.00 0.28 0.00 87 1011.0
20260508064547 54 261 0.0 0.0 0.00 0.28 0.00 87 1011.1
20260508063527 54 163 0.0 1.0 0.00 0.28 0.00 86 1011.2
20260508062546 53 187 0.0 1.0 0.00 0.28 0.00 86 1011.2
20260508061527 53 183 0.0 2.0 0.00 0.28 0.00 86 1011.2
20260508060527 53 317 0.0 1.0 0.00 0.28 0.00 87 1011.2
20260508055527 53 0.0 0.0 0.00 0.28 0.00 87 1011.2
20260508054527 53 148 0.0 2.0 0.00 0.28 0.00 87 1011.4
20260508053528 53 0.0 0.0 0.00 0.28 0.00 87 1011.4
20260508052528 52 315 0.0 1.0 0.00 0.28 0.00 86 1011.4
20260508051528 52 0.0 0.0 0.00 0.28 0.00 86 1011.4
20260508050548 52 247 0.0 0.0 0.00 0.28 0.00 86 1011.6
20260508045528 53 0.0 0.0 0.00 0.28 0.00 86 1011.6
20260508044528 53 0.0 0.0 0.00 0.28 0.00 86 1011.5
20260508043528 53 0.0 0.0 0.00 0.28 0.00 87 1011.5
20260508042529 53 0.0 0.0 0.00 0.28 0.00 88 1011.5
20260508041529 53 306 0.0 0.0 0.00 0.28 0.00 88 1011.4
20260508040529 53 0.0 0.0 0.00 0.28 0.00 88 1011.3
20260508035529 53 238 0.0 0.0 0.00 0.28 0.28 88 1011.3
20260508034530 53 0.0 0.0 0.00 0.28 0.28 89 1011.2
20260508033529 53 314 0.0 0.0 0.00 0.28 0.28 90 1011.2
20260508032530 53 0.0 0.0 0.00 0.28 0.28 90 1011.3
20260508031530 53 0.0 0.0 0.00 0.28 0.28 90 1011.4
20260508030530 53 0.0 0.0 0.00 0.28 0.28 90 1011.3
20260508025610 53 258 0.0 1.0 0.00 0.28 0.28 90 1011.3
20260508024530 53 0.0 0.0 0.00 0.28 0.28 90 1011.4
20260508023531 53 0.0 0.0 0.00 0.28 0.28 90 1011.2
20260508022531 53 247 0.0 0.0 0.00 0.28 0.28 89 1011.2
20260508021516 53 0.0 0.0 0.00 0.28 0.28 89 1011.2
20260508020516 54 84 0.0 0.0 0.00 0.28 0.28 88 1011.2
20260508015557 54 0.0 0.0 0.00 0.28 0.28 88 1011.1
20260508014517 54 236 0.0 1.0 0.00 0.28 0.28 87 1011.0
20260508013537 54 0.0 0.0 0.00 0.28 0.28 86 1011.0
20260508012537 54 154 0.0 1.0 0.00 0.28 0.28 86 1011.0
20260508011538 54 0.0 0.0 0.00 0.28 0.28 84 1010.8
20260508010517 54 208 0.0 2.0 0.00 0.28 0.28 84 1010.7
20260508005537 55 0.0 0.0 0.00 0.28 0.28 84 1010.5
20260508004517 55 0.0 0.0 0.00 0.28 0.28 84 1010.3
20260508003517 55 194 0.0 2.0 0.00 0.28 0.28 83 1010.3
20260508002518 55 210 0.0 2.0 0.00 0.28 0.28 83 1010.2
20260508001518 55 204 0.0 2.0 0.00 0.28 0.28 86 1010.0
20260508000518 55 216 0.0 1.0 0.00 0.28 0.28 88 1009.9
20260507235538 55 205 1.0 2.0 0.00 0.28 0.28 87 1010.0
20260507234539 55 206 1.0 2.0 0.00 0.28 0.28 85 1010.0
20260507233519 55 198 1.0 3.0 0.00 0.28 0.28 84 1009.9
20260507232519 55 195 1.0 2.0 0.00 0.28 0.28 81 1009.9
20260507231519 55 188 0.0 1.0 0.00 0.28 0.28 79 1009.8
20260507230519 56 188 0.0 2.0 0.00 0.28 0.28 81 1009.7
20260507225519 56 193 0.0 3.0 0.00 0.28 0.28 79 1009.8
20260507224519 56 198 2.0 3.0 0.00 0.28 0.28 78 1009.9
20260507223520 56 219 0.0 2.0 0.00 0.28 0.28 78 1010.0
20260507222520 56 217 0.0 2.0 0.00 0.28 0.28 79 1009.6
20260507221520 56 193 0.0 3.0 0.01 0.28 0.28 81 1009.8
20260507220541 56 199 0.0 3.0 0.01 0.28 0.28 81 1009.8
20260507215520 56 0.0 0.0 0.02 0.28 0.28 80 1009.7
20260507214520 56 198 0.0 2.0 0.03 0.28 0.28 80 1010.1
20260507213520 55 0.0 0.0 0.02 0.27 0.27 78 1010.1
20260507212521 55 212 0.0 1.0 0.02 0.27 0.27 77 1010.1
20260507211522 56 210 0.0 2.0 0.02 0.27 0.27 78 1010.2
20260507210521 57 207 0.0 1.0 0.02 0.27 0.27 76 1009.9
20260507205521 57 259 0.0 0.0 0.04 0.26 0.26 77 1009.9
20260507204521 57 256 0.0 0.0 0.04 0.25 0.25 78 1010.0
20260507203522 57 271 0.0 1.0 0.05 0.25 0.25 77 1009.6
20260507202521 57 282 0.0 0.0 0.05 0.25 0.25 78 1009.8
20260507201522 57 0.0 0.0 0.06 0.25 0.25 80 1009.8
20260507200522 57 0.0 0.0 0.09 0.25 0.25 80 1009.6
20260507195542 57 0.0 0.0 0.09 0.22 0.22 78 1009.6
20260507194542 58 0.0 0.0 0.09 0.21 0.21 77 1010.1
20260507193523 58 0.0 0.0 0.09 0.20 0.20 78 1010.1
20260507192524 58 0.0 0.0 0.09 0.20 0.20 79 1009.8
20260507191523 59 0.0 0.0 0.09 0.20 0.20 79 1010.2
20260507190523 59 0.0 0.0 0.06 0.16 0.16 76 1010.5
20260507185523 59 0.0 0.0 0.03 0.13 0.13 74 1010.5
20260507184523 60 0.0 0.0 0.02 0.12 0.12 74 1010.8
20260507183523 60 0.0 0.0 0.02 0.12 0.12 72 1010.8